Погода в Картейре

Португалия     37°04′08″N   8°06′09″W
темп.,
°C
ветер,
м/с
пор.,
м/с
влажн.,
%
обл.,
%
осадки,
мм/ч
давл.,
гПа
погр.,
м
11 мая, вт
вт1101:00+13сз58740 0.0 1021493
04:00+13сз4572100 0.0 1022276
07:00+13с3369100 0.0 1023171
10:00+15сз22551 0.0 1024664
13:00+17юз66571 0.0 1024861
16:00+17зюз88580 0.0 1023757
19:00+18з1010580 0.0 1022756
22:00+15сз79655 0.0 1024465
12 мая, ср
ср1201:00+14сз57755 0.0 1023298
04:00+13сз457737 0.0 1022218
07:00+13сз33775 0.0 1022169
10:00+16з34726 0.0 1023435
13:00+18зюз887829 0.1 1022700
16:00+20зюз910681 0.0 1021806
19:00+20сз794998 0.0 1021418
22:00+16сз69661 0.0 1023456
13 мая, чт
чт1301:00+15ссз610760 0.0 1022361
04:00+14ссз510750 0.0 1021379
07:00+14ссз59780 0.0 1021368
10:00+18ссз45571 0.0 1021864
13:00+19зюз77655 0.0 1020658
16:00+22з910570 0.0 1017675
19:00+20сз911591 0.0 1018434
22:00+17сз712792 0.0 1019607
14 мая, пт
пт1401:00+16ссз610815 0.0 1019444
04:00+15ссз611805 0.0 1018484
07:00+14ссз510820 0.0 1019542
10:00+18ссз68602 0.0 1019733
13:00+22сз334728 0.0 1018399
16:00+23сз45456 0.0 1016493
19:00+24с674168 0.0 1016382
22:00+19ссз7115365 0.0 1018248
15 мая, сб
сб1501:00+18с71350100 0.0 1018296
04:00+17сз125425 0.0 101740
07:00+16с495712 0.0 1018279
10:00+20ссв125518 0.0 1018177
13:00+22ююв345282 0.0 1018478
16:00+22юз455816 0.0 1016581
19:00+24зсз245631 0.0 1015439
22:00+22ссз7125816 0.0 1016155